Other Public Products
Issued by NWS Grand Forks, ND

Home | Current Version | Previous Version | Graphics & Text | Print | Product List | Glossary On
Versions: 1 2 3 4 5 6 7 8 9 10 11 12 13 14 15 16 17 18 19 20 21 22 23 24 25 26 27 28 29 30 31 32 33 34 35 36 37 38 39 40 41 42 43 44 45 46 47 48 49 50
000
FPUS83 KFGF 251831
OPUFGF
PRAIRIE TO PINES WEATHER ROUNDUP
NATIONAL WEATHER SERVICE EASTERN NORTH DAKOTA/GRAND FORKS ND
100 PM CDT MON JUL 25 2016

 **SATELLITE DATA USED TO AUGMENT SKY COVER AT AUTOMATED STATIONS**
 *****  WEATHER ACROSS EASTERN NORTH DAKOTA  *****

CITY           SKY/WX    TMP DP  RH WIND       PRES   REMARKS
GRAND FORKS    MOSUNNY   83  61  47 SE8       29.98F
6HR MIN TEMP:  62; 6HR MAX TEMP:  83;

GRAND FORKS AF SUNNY     83  62  48 SW10      29.99F
GRAND CITY NWS   N/A     82 N/A N/A S7          N/A
BUXTON           N/A     86  66  51 SE6         N/A
DEVILS LAKE    SUNNY     81  63  54 SE9       29.99F
6HR MIN TEMP:  60; 6HR MAX TEMP:  81;

FARGO          SUNNY     85  60  42 S9        30.01F
6HR MIN TEMP:  62; 6HR MAX TEMP:  85;

WAHPETON ARPT  CLEAR     82  59  44 S9        30.03F
$$

 *****  WEATHER ACROSS CENTRAL AND WESTERN NORTH DAKOTA  *****

CITY           SKY/WX    TMP DP  RH WIND       PRES   REMARKS
JAMESTOWN      SUNNY     87  64  46 S16       29.99F
6HR MIN TEMP:  60; 6HR MAX TEMP:  87;

BISMARCK       SUNNY     86  64  47 S9        29.97F
6HR MIN TEMP:  60; 6HR MAX TEMP:  87;

MINOT          SUNNY     87  59  38 E5        29.95F
6HR MIN TEMP:  62; 6HR MAX TEMP:  87;

MINOT AFB      SUNNY     82  60  48 NE5       29.95S
6HR MIN TEMP:  58; 6HR MAX TEMP:  82;

GARRISON         N/A     81  65  58 SE5       29.98R
6HR MIN TEMP:  60; 6HR MAX TEMP:  81;

WILLISTON      SUNNY     87  53  31 NE8       29.98S
6HR MIN TEMP:  61; 6HR MAX TEMP:  88;

DICKINSON      SUNNY     87  54  32 VRB3      29.98F
6HR MIN TEMP:  56; 6HR MAX TEMP:  87;

HETTINGER      SUNNY     94  54  25 SE9       30.01F HX  92
6HR MIN TEMP:  60; 6HR MAX TEMP:  94;

$$

 *****  OTHER OBSERVATIONS NORTHEAST NORTH DAKOTA  *****

CITY           SKY/WX    TMP DP  RH WIND       PRES   REMARKS
WALHALLA       FAIR      81  77  89 S5        29.97F
LANGDON        FAIR      82  63  51 S8G14     30.00F
CAVALIER       FAIR      81  63  54 SW5       29.97F
GRAFTON        FAIR      81  61  50 CALM      29.99F
CANDO          FAIR      81  66  61 SE8       30.00F
FORT TOTTEN    NOT AVBL
ROLLA            N/A     77  63  61 SE7       30.01S
RUGBY          NOT AVBL
 ***** THE ABOVE OBSERVATIONS ARE NON NWS ARE NOT QUALITY
        CONTROLLED AND MAY MIS-REPORT RAIN FOR SNOW...
$$

 *****  OTHER OBSERVATIONS SOUTHEAST NORTH DAKOTA *****

CITY           SKY/WX    TMP DP  RH WIND       PRES   REMARKS
COOPERSTOWN    NOT AVBL
VALLEY CITY    FAIR      84  63  48 S16G22    30.02F
OAKES            N/A    N/A N/A N/A MISG        N/A
GWINNER        FAIR      86  64  48 S15       30.03F
SHEYENNE NWR     N/A     87  60  40 SW13      29.95S
BUFFALO          N/A     84  59  43 S10         N/A
WYNDMERE         N/A     88  66  48 S6          N/A  HX  90
 ***** THE ABOVE OBSERVATIONS ARE NON NWS ARE NOT QUALITY
       CONTROLLED AND MAY MIS-REPORT RAIN FOR SNOW...
$$

  *****  WEATHER ACROSS NORTHERN MINNESOTA  *****

CITY           SKY/WX    TMP DP  RH WIND       PRES   REMARKS
FLAG ISLAND    SUNNY     77  57  50 NW16      29.96S
WARROAD        SUNNY     79  64  61 W12G17    29.99F
ROSEAU         SUNNY     79  66  65 W7        29.99F
HALLOCK        SUNNY     81  63  54 SW3       29.98F
THF RVR FALLS  SUNNY     78  62  57 VRB7      30.02F
6HR MIN TEMP:  59; 6HR MAX TEMP:  79;

HALSTAD        NOT AVBL
FOSSTON        SUNNY     79  61  53 SW9       30.04F
BAUDETTE       MOSUNNY   80  61  52 W12       29.99F
6HR MIN TEMP:  61; 6HR MAX TEMP:  80;

WASKISH        SUNNY     79  64  61 W12       30.01F
CROOKSTON      SUNNY     81  63  54 S5        30.00F
$$
  *****  WEATHER ACROSS CENTRAL AND WEST MINNESOTA  *****

CITY           SKY/WX    TMP DP  RH WIND       PRES   REMARKS
BEMIDJI        SUNNY     81  59  47 W13       30.03F
PARK RAPIDS    SUNNY     80  59  48 W7        30.05F
6HR MIN TEMP:  61; 6HR MAX TEMP:  82;

WADENA         SUNNY     79  63  57 W7        30.06F
DETROIT LAKES  SUNNY     81  59  47 SW7       30.06F
MOORHEAD       SUNNY     82  63  51 S6        30.02F
FERGUS FALLS   SUNNY     81  63  54 S7        30.06F
ELBOW LAKE     FAIR      80  64  56 SW6       30.07S
MORRIS MN      SUNNY     84  63  48 SW8       30.06F
STAPLES        SUNNY     82  59  44 W7        30.06F
WHEATON        SUNNY     86  70  58 S6        30.06F HX  90
$$
  *****  WEATHER ELSEWHERE ACROSS MINNESOTA  *****

CITY           SKY/WX    TMP DP  RH WIND       PRES   REMARKS
DULUTH         MOSUNNY   79  59  50 W14       30.02F
6HR MIN TEMP:  64; 6HR MAX TEMP:  79;

INTRNTL FALLS  MOSUNNY   79  60  52 W9        29.99F
6HR MIN TEMP:  61; 6HR MAX TEMP:  79;

ELY            MOSUNNY   75  55  50 NW9G20    30.00F
CLOQUET        SUNNY     81  55  41 W9G17     30.03S
BRAINERD       SUNNY     80  60  50 W13       30.06S
6HR MIN TEMP:  63; 6HR MAX TEMP:  80;

HIBBING        MOSUNNY   76  59  55 NW12      30.02F
6HR MIN TEMP:  59; 6HR MAX TEMP:  76;

ALEXANDRIA     SUNNY     82  59  45 W10       30.10S
6HR MIN TEMP:  63; 6HR MAX TEMP:  82;

SAINT CLOUD    SUNNY     82  62  50 NW5       30.06S
6HR MIN TEMP:  62; 6HR MAX TEMP:  82;

MINNEAPOLIS    SUNNY     84  59  42 W8        30.06S
6HR MIN TEMP:  68; 6HR MAX TEMP:  84;

$$

  *****  WEATHER ACROSS SOUTH DAKOTA  *****

CITY           SKY/WX    TMP DP  RH WIND       PRES   REMARKS
SIOUX FALLS    MOSUNNY   83  58  42 SW9       30.12S
6HR MIN TEMP:  64; 6HR MAX TEMP:  83;

BROOKINGS      SUNNY     82  61  48 SW13      30.12S
WATERTOWN      SUNNY     85  59  41 SW14      30.10F
6HR MIN TEMP:  61; 6HR MAX TEMP:  85;

HURON          SUNNY     86  58  38 S17       30.07F
6HR MIN TEMP:  62; 6HR MAX TEMP:  86;

SISSETON         N/A     87  58  37 SW12      30.04F
ABERDEEN       SUNNY     88  60  38 S15G23    30.04F
6HR MIN TEMP:  59; 6HR MAX TEMP:  89;

MITCHELL       SUNNY     86  60  41 S12G20    30.09F
PIERRE         SUNNY     94  55  26 S14       30.01F HX  92
6HR MIN TEMP:  65; 6HR MAX TEMP:  94; 6HR PCP: TRACE;

MOBRIDGE       SUNNY     95  58  28 S16G24    29.97F HX  94
RAPID CITY     SUNNY     88  56  33 S16G23    30.06F
6HR MIN TEMP:  65; 6HR MAX TEMP:  88;

$$

  *****  SOME WEATHER IN NEARBY STATES *****

CITY           SKY/WX    TMP DP  RH WIND       PRES   REMARKS
GLASGOW MT     SUNNY     85  50  29 VRB3      29.99S
6HR MIN TEMP:  58; 6HR MAX TEMP:  87;

GREAT FALLS MT SUNNY     81  43  26 CALM      30.10S
6HR MIN TEMP:  50; 6HR MAX TEMP:  83;

CHEYENNE WY    SUNNY     79  56  45 S13       30.25S
6HR MIN TEMP:  54; 6HR MAX TEMP:  80;

SCOTTSBLUFF NE SUNNY     85  54  34 S21       30.13F
6HR MIN TEMP:  58; 6HR MAX TEMP:  85;

OMAHA NE       MOSUNNY   84  64  50 E5        30.12F
6HR MIN TEMP:  66; 6HR MAX TEMP:  86;

DES MOINES IA  MOSUNNY   87  59  38 N8        30.09F
6HR MIN TEMP:  72; 6HR MAX TEMP:  88;

DAVENPORT IA   SUNNY     83  65  54 N9        30.05S
6HR MIN TEMP:  68; 6HR MAX TEMP:  83;

CHICAGO IL     MOSUNNY   85  61  44 NW8       30.00S
6HR MIN TEMP:  74; 6HR MAX TEMP:  86;

EAU CLAIRE WI  SUNNY     82  61  48 NW9       30.04S
6HR MIN TEMP:  65; 6HR MAX TEMP:  82;

LA CROSSE WI   SUNNY     82  63  52 W9        30.04S
6HR MIN TEMP:  70; 6HR MAX TEMP:  83;

$$

  *****  SOME NATIONAL WEATHER *****

CITY           SKY/WX    TMP DP  RH WIND       PRES   REMARKS
LA GUARDIA NY  CLOUDY    92  72  51 SE8       29.87F HX  99
6HR MIN TEMP:  81; 6HR MAX TEMP:  92;                              C1F1C2F2C3F3C4F4C5F5C6F6C7F7C8F8C9F9CaFaCbFbCcFcCdFdCe!


USA.gov is the U.S. government's official web portal to all federal, state and local government web resources and services.